STARLINK-1681, 46559

Orbit data source: Space-Track

STARLINK-1681, 46559 is a payload satellite owned by SpaceX/Seattle (US) in LEO that was launched on Tue, 06 Oct 2020 UTC via an FALCON 9 launch vehicle from the Air Force Eastern Test Range (AFETR). Payload-class satellites include a variety of spacecraft equipped with specific instruments for various scientific and technological missions. These include communications satellites like Starlink; space stations such as the ISS; scientific satellites like the Hubble; Earth observation satellites from companies like Planet Labs, Umbra, and HawkEye 360; GPS; miniature CubeSats for education and research; and military/defense satellites.

Loading next visibility...
Identifier
46559, 2020-070AD
Orbit
LEO
Last TLE update
5 hours ago
Origin
Manufacturer
SpaceX/Seattle
Mission
Partially operational Commercial Communications
Bus & Motor
STARLINK, Unknown motor
Mass
260 kg wet, ~248 kg dry
Launch date (UTC)
2020-10-06 (5 years ago)
Launch vehicle
FALCON 9
Launch site
Air Force Eastern Test Range (AFETR)
Object type
Payload
Rocket body
Debris
Shape & HBR
Box + 1 Pan, 8.86 m
Radar Cross Section
13.562 m², Large (>1 m²)

Expand to show TLE details & history

TLE from 5 hours ago
0 STARLINK-1681
1 46559U 20070AD  25192.13533196  .00030643  00000-0  13335-2 0  9991
2 46559  53.0565 141.0650 0008065 354.6206   5.4702 15.21982481263669
Epoch: 2025-07-11T03:14Z
TLE epoch observation values (Epoch: 2025-07-11T03:14:52.681Z)
Latitude
-0°
Longitude
163.05389°
Altitude
495.225 km
Speed
7.621 km/s
True Right ascension
09h 24m 15s
True Declination
0° 00' 00"
Sunlit
Object was in daylight at epoch
Visualization orbit readout
Latitude
30.17036°
Longitude
-172.1154°
Altitude
497.52 km
Speed
7.622 km/s
Apparent Right ascension
09h 52m 49s
Apparent Declination
-3° 33' 00"
Sunlit
Object is in daylight
Visualization observer readout
Local Sidereal Time
20:26:12
Azimuth
326.085° NNW
Elevation
-48.697°
Doppler factor
1
Orbital elements
Apogee altitude
505.681 km
Perigee altitude
494.586 km
Semi-major axis
6,878.271 km
Eccentricity
0.00081
Inclination
53.0565°
RAAN
141.065°
Arg. of periapsis
354.6206°
True anomaly
Unknown
Mean anomaly
5.4702°
Eccentric anomaly
Unknown
Mean motion
3.80473 °/min
Orbital period
94.62 mins
BSTAR
0.0013335
Loading maneuver chart data...
Loading SW <> Apogee altitude chart data...
Loading historical data...
Loading historical data...
Loading historical data...
Loading historical data...
Loading historical data...
Loading historical data...
Loading historical data...

STARLINK-1681 Visibility forecast

Observer location: undefined°, undefined°

Span
Click to sort rows by Start time (UTC) header in descending order
Start Az.
Max El. time (UTC)
Max El. Az.
Max El.
End time (UTC)
End Az.
5 mins2025-07-11 22:18:43.047Z178.017° S2025-07-11 22:21:43.047Z119.112° SE20.709°2025-07-11 22:23:43.047Z82.974° E
5 mins2025-07-11 23:57:43.047Z266.293° W2025-07-11 23:59:43.047Z334.945° NNW35.119°2025-07-12 00:02:43.047Z37.644° NE
4 mins2025-07-12 04:56:43.047Z352.543° N2025-07-12 04:57:43.047Z16.697° NNE24.246°2025-07-12 05:00:43.047Z81.355° E
5 mins2025-07-12 06:34:43.047Z287.666° WNW2025-07-12 06:36:43.047Z224.612° SW36.212°2025-07-12 06:39:43.047Z154.346° SSE
|